Regional Weather Roundup
Issued by NWS

Home | Current Version | Previous Version | Text Only | Print | Product List | Glossary Off
Versions: 1 2 3 4 5 6 7 8 9 10 11 12 13 14 15 16 17 18 19 20 21 22 23 24 25 26 27 28 29 30 31 32 33 34 35 36 37 38 39 40 41 42 43 44 45 46 47 48 49 50

000
ASUS45 KPSR 160500
RWRAZ

PRELIMINARY ARIZONA REGIONAL HOURLY WEATHER ROUNDUP
NATIONAL WEATHER SERVICE PHOENIX AZ
1000 PM MST TUE APR 15 2014

NOTE: FAIR INDICATES FEW OR NO CLOUDS BELOW 12,000 FEET WITH NO
SIGNIFICANT WEATHER AND/OR OBSTRUCTIONS TO VISIBILITY.

AZZ001>003-036-160600-
NORTHWEST ARIZONA

CITY           SKY/WX    TMP DP  RH WIND       PRES   REMARKS
KINGMAN        CLEAR     53  -3  10 S7        29.87F
$$

AZZ004>008-015-016-018-160600-
NORTH CENTRAL ARIZONA

CITY           SKY/WX    TMP DP  RH WIND       PRES   REMARKS
GRAND CANYON   CLEAR     33  -4  20 CALM      30.02R
WILLIAMS       CLEAR     45  -2  14 CALM      30.10S
PRESCOTT       CLEAR     52   8  17 VRB5      29.97R
FLAGSTAFF      CLEAR     41   8  25 SW7       30.04F
PAYSON         MOCLDY    55  14  19 NW5       29.99S
PAGE           CLEAR     68   3   7 W3        29.84R
$$

AZZ009>014-017-160600-
NORTHEAST ARIZONA

CITY           SKY/WX    TMP DP  RH WIND       PRES   REMARKS
WINSLOW        NOT AVBL
SAINT JOHNS    MOCLDY    52   6  15 W8        29.96R
WINDOW ROCK    PTCLDY    41  -2  16 CALM      29.99S
SHOW LOW       MOCLDY    48   7  18 S9        30.03S
$$

AZZ023-160600-
GREATER PHOENIX AREA

CITY           SKY/WX    TMP DP  RH WIND       PRES   REMARKS
PHOENIX        CLEAR     78  17  10 CALM      29.74S
DEER VALLEY    CLEAR     65  12  12 NE3       29.77S
SCOTTSDALE     CLEAR     72  18  13 N3        29.79R
MESA-GATEWAY   PTCLDY    66  14  13 NE3       29.78S
$$

AZZ027-028-160600-
SOUTHWEST MARICOPA COUNTY AND PINAL COUNTY

CITY           SKY/WX    TMP DP  RH WIND       PRES   REMARKS
CASA GRANDE    CLEAR     66   1   7 NW7       29.78S
GILA BEND      CLEAR     70   9   9 S6        29.76R
$$

AZZ503-504-507>509-160600-
SOUTHEAST ARIZONA

CITY           SKY/WX    TMP DP  RH WIND       PRES   REMARKS
TUCSON         CLEAR     71   8   8 S9        29.85R
DAVIS-MONTHAN  CLEAR     67  11  11 S7        29.83S
NOGALES        CLEAR     62  10  13 SE3       29.91R
SIERRA VISTA   PTCLDY    63   7  11 W15       29.95S
SAFFORD        PTCLDY    63   9  12 S3        29.85S
$$

AZZ020-021-025-026-031-160600-
SOUTHWEST ARIZONA

CITY           SKY/WX    TMP DP  RH WIND       PRES   REMARKS
YUMA           NOT AVBL
$$

CAZ031-033-041-043-047-048-061-160600-
SOUTHERN CALIFORNIA

CITY           SKY/WX    TMP DP  RH WIND       PRES   REMARKS
DOWNTOWN L.A.  CLOUDY    58  53  84 CALM      29.87S
L.A. AIRPORT   MOCLDY    58  53  84 W7        29.88R
SAN DIEGO      MOCLDY    61  52  72 CALM      29.93R
BURBANK        CLEAR     60  52  74 SE8       29.85S
ONTARIO        PTCLDY    64  47  53 W7        29.87R
RIVERSIDE      CLEAR     67  43  41 VRB5      29.87R
PALM SPRINGS   CLEAR     83  22  10 NW10      29.76R
EL CENTRO NAS  PTCLDY    77  34  21 W10       29.73R
IMPERIAL       CLEAR     76  36  23 W15       29.72R
BLYTHE         CLEAR     75  15  10 SW8       29.73R
$$

NVZ020-UTZ003-160600-
SOUTHERN NEVADA-UTAH

CITY           SKY/WX    TMP DP  RH WIND       PRES   REMARKS
LAS VEGAS      NOT AVBL
SALT LAKE CITY CLOUDY    52  26  36 N8        29.93R
$$

NMZ009-TXZ055-160600-
NEW MEXICO-WEST TEXAS

CITY           SKY/WX    TMP DP  RH WIND       PRES   REMARKS
ALBUQUERQUE    PTCLDY    57   8  14 S17       29.92S
EL PASO        PTCLDY    62   1   8 CALM      29.93F
$$


........................KEY........................
SKY/WX - SKY CONDITION/WEATHER
TMP    - TEMPERATURE IN FAHRENHEIT
DP     - DEW POINT IN FAHRENHEIT
RH     - RELATIVE HUMIDITY IN PERCENT
WIND   - DIRECTION AND SPEED IN MILES PER HOUR (MPH)
VRB    - VARIABLE WIND DIRECTION
PRES   - MEAN SEA LEVEL PRESSURE IN INCHES OF MERCURY
         F - FALLING PRESSURE   R - RISING PRESSURE
         S - STEADY PRESSURE
VSB    - VISIBILITY IN MILES
HX     - HEAT INDEX IN FAHRENHEIT
WCI    - WIND CHILL INDEX IN FAHRENHEIT
TC     - TEMPERATURE IN CELSIUS WHICH IS ALSO KNOWN AS
         TEMPERATURE IN CENTIGRADE
AFB    - AIR FORCE BASE
         LUKE AFB IS LUKE AIR FORCE BASE
         DAVIS-MONTHAN IS DAVIS-MONTHAN AIR FORCE BASE
NAS    - NAVAL AIR STATION
         EL CENTRO NAS IS EL CENTRO NAVAL AIR STATION
N/A    - NOT AVAILABLE



USA.gov is the U.S. government's official web portal to all federal, state and local government web resources and services.